Date String (YYYY-MM-DD hh:mm:ss) UTC,Instrument flags,Ambient pressure (hPa),Sample flow (lpm),Bypass flow (lpm),Sample temperature (°C),Ambient temperature (°C),ASC tube jacket temperature (°C),LED temperature (°C),Box temperature (°C),Sample RH (%),Span deviation,Mass concentration (μg/m³),Mass concentration (μg/m³),Mass concentration (μg/m³)
DateTimeUTC,F1_M11,P_M11,Q1_M11,Q2_M11,T1_M11,T2_M11,T3_M11,T4_M11,T5_M11,U1_M11,ZSPAN_M11,X2_M11,X0_M11,X1_M11
2022-05-02 05:00:00,,0822.8,4.99,0.00,28.6,27.7,00.0,37.7,30.3,21.2,0000.0,0006.40,0012.71,0004.66
2022-05-02 05:01:00,,0822.8,5.01,0.00,28.6,27.7,00.0,37.7,30.4,21.3,0000.0,0006.37,0012.56,0004.68
2022-05-02 05:02:00,,0822.8,4.99,0.00,28.6,27.8,00.0,37.7,30.4,21.1,0000.0,0006.40,0012.54,0004.69
2022-05-02 05:03:00,,0822.8,5.01,0.00,28.6,27.8,00.0,37.7,30.4,20.9,0000.0,0006.44,0012.67,0004.70
2022-05-02 05:04:00,,0822.7,4.99,0.00,28.6,27.8,00.0,37.7,30.4,20.9,0000.0,0006.48,0013.03,0004.72
2022-05-02 05:05:00,,0822.8,5.00,0.00,28.6,27.8,00.0,37.7,30.4,20.5,0000.0,0006.51,0013.20,0004.73
2022-05-02 05:06:00,,0822.8,5.02,0.00,28.6,27.8,00.0,37.7,30.4,20.4,0000.0,0006.50,0012.96,0004.73
2022-05-02 05:07:00,,0822.9,4.99,0.00,28.6,27.8,00.0,37.7,30.4,20.4,0000.0,0006.48,0013.30,0004.73
2022-05-02 05:08:00,,0823.0,5.00,0.00,28.6,27.8,00.0,37.7,30.4,20.5,0000.0,0006.56,0013.55,0004.74
2022-05-02 05:09:00,,0823.0,5.00,0.00,28.7,27.8,00.0,37.6,30.4,20.6,0000.0,0006.60,0013.54,0004.76
2022-05-02 05:10:00,,0823.0,5.00,0.00,28.7,27.8,00.0,37.6,30.5,20.6,0000.0,0006.56,0013.82,0004.75
2022-05-02 05:11:00,,0822.9,4.99,0.00,28.7,27.8,00.0,37.7,30.5,20.5,0000.0,0006.55,0013.82,0004.76
2022-05-02 05:12:00,,0822.9,5.01,0.00,28.7,27.8,00.0,37.7,30.5,20.3,0000.0,0006.49,0013.48,0004.77
2022-05-02 05:13:00,,0822.8,4.99,0.00,28.7,27.8,00.0,37.7,30.5,20.2,0000.0,0006.49,0013.41,0004.78
2022-05-02 05:14:00,,0822.7,5.01,0.00,28.7,27.8,00.0,37.7,30.5,20.2,0000.0,0006.51,0013.87,0004.77
2022-05-02 05:15:00,,0822.7,5.00,0.00,28.7,27.8,00.0,37.7,30.5,20.3,0000.0,0006.47,0013.66,0004.77
2022-05-02 05:16:00,,0822.7,5.01,0.00,28.7,27.8,00.0,37.7,30.4,20.1,0000.0,0006.46,0013.49,0004.79
2022-05-02 05:17:00,,0822.8,4.98,0.00,28.7,27.8,00.0,37.6,30.4,20.0,0000.0,0006.48,0013.80,0004.81
2022-05-02 05:18:00,,0822.9,5.02,0.00,28.7,27.8,00.0,37.6,30.4,20.1,0000.0,0006.52,0014.02,0004.83
2022-05-02 05:19:00,,0823.0,4.99,0.00,28.7,27.8,00.0,37.6,30.4,20.2,0000.0,0006.51,0014.14,0004.82
2022-05-02 05:20:00,,0822.9,5.01,0.00,28.7,27.8,00.0,37.6,30.4,20.2,0000.0,0006.43,0014.21,0004.83
2022-05-02 05:21:00,,0822.9,4.99,0.00,28.7,27.8,00.0,37.6,30.4,20.0,0000.0,0006.39,0014.29,0004.83
2022-05-02 05:22:00,,0822.9,5.01,0.00,28.7,27.8,00.0,37.6,30.4,19.8,0000.0,0006.33,0014.19,0004.82
2022-05-02 05:23:00,,0822.9,4.98,0.00,28.7,27.8,00.0,37.6,30.5,19.5,0000.0,0006.36,0014.38,0004.82
2022-05-02 05:24:00,,0823.0,5.01,0.00,28.7,27.8,00.0,37.6,30.5,19.5,0000.0,0006.38,0014.48,0004.81
2022-05-02 05:25:00,,0823.0,5.00,0.00,28.7,27.8,00.0,37.7,30.5,19.6,0000.0,0006.32,0014.08,0004.81
2022-05-02 05:26:00,,0823.0,4.99,0.00,28.7,27.9,00.0,37.7,30.5,19.6,0000.0,0006.24,0013.52,0004.80
2022-05-02 05:27:00,,0823.0,5.02,0.00,28.7,27.9,00.0,37.7,30.5,19.8,0000.0,0006.25,0013.54,0004.79
2022-05-02 05:28:00,,0823.0,4.99,0.00,28.7,27.8,00.0,37.7,30.5,19.9,0000.0,0006.26,0013.70,0004.76
2022-05-02 05:29:00,,0823.0,5.01,0.00,28.7,27.9,00.0,37.7,30.5,19.9,0000.0,0006.18,0012.95,0004.75
2022-05-02 05:30:00,,0823.0,5.01,0.00,28.7,27.9,00.0,37.7,30.5,19.9,0000.0,0006.12,0012.91,0004.74
2022-05-02 05:31:00,,0823.0,4.99,0.00,28.7,27.9,00.0,37.7,30.5,20.0,0000.0,0006.12,0013.12,0004.71
2022-05-02 05:32:00,,0823.0,5.01,0.00,28.7,27.8,00.0,37.7,30.5,20.0,0000.0,0006.14,0012.87,0004.70
2022-05-02 05:33:00,,0822.9,4.99,0.00,28.7,27.9,00.0,37.7,30.5,20.0,0000.0,0006.17,0013.40,0004.70
2022-05-02 05:34:00,,0823.0,5.01,0.00,28.7,27.8,00.0,37.7,30.5,20.0,0000.0,0006.16,0014.11,0004.68
2022-05-02 05:35:00,,0823.1,4.99,0.00,28.7,27.8,00.0,37.7,30.5,20.0,0000.0,0006.12,0014.27,0004.68
2022-05-02 05:36:00,,0823.0,5.01,0.00,28.7,27.8,00.0,37.7,30.5,20.0,0000.0,0006.14,0014.34,0004.69
2022-05-02 05:37:00,,0823.0,4.98,0.00,28.7,27.8,00.0,37.7,30.5,20.0,0000.0,0006.23,0015.39,0004.69
2022-05-02 05:38:00,,0823.0,5.02,0.00,28.7,27.8,00.0,37.7,30.5,20.0,0000.0,0006.23,0015.88,0004.68
2022-05-02 05:39:00,,0823.1,4.98,0.00,28.7,27.8,00.0,37.7,30.5,20.1,0000.0,0006.23,0015.67,0004.69
2022-05-02 05:40:00,,0823.1,5.02,0.00,28.7,27.8,00.0,37.7,30.5,20.1,0000.0,0006.32,0015.78,0004.69
2022-05-02 05:41:00,,0823.1,4.98,0.00,28.7,27.8,00.0,37.7,30.5,20.2,0000.0,0006.33,0015.56,0004.70
2022-05-02 05:42:00,,0823.1,5.01,0.00,28.7,27.8,00.0,37.7,30.5,20.3,0000.0,0006.32,0015.09,0004.71
2022-05-02 05:43:00,,0823.0,4.99,0.00,28.7,27.8,00.0,37.7,30.5,20.2,0000.0,0006.33,0014.86,0004.71
2022-05-02 05:44:00,,0823.1,5.00,0.00,28.7,27.8,00.0,37.7,30.5,20.2,0000.0,0006.30,0014.31,0004.71
2022-05-02 05:45:00,,0822.9,5.00,0.00,28.7,27.8,00.0,37.7,30.5,20.3,0000.0,0006.24,0013.78,0004.71
2022-05-02 05:46:00,,0822.9,4.99,0.00,28.7,27.8,00.0,37.7,30.5,20.3,0000.0,0006.18,0013.65,0004.69
2022-05-02 05:47:00,,0822.9,5.01,0.00,28.7,27.8,00.0,37.7,30.5,20.4,0000.0,0006.17,0013.66,0004.69
2022-05-02 05:48:00,,0823.0,4.99,0.00,28.7,27.8,00.0,37.7,30.5,20.4,0000.0,0006.15,0013.10,0004.69
2022-05-02 05:49:00,,0822.9,5.02,0.00,28.7,27.8,00.0,37.7,30.5,20.4,0000.0,0006.12,0013.24,0004.69
2022-05-02 05:50:00,,0823.0,4.98,0.00,28.7,27.8,00.0,37.7,30.5,20.5,0000.0,0006.10,0013.67,0004.68
2022-05-02 05:51:00,,0823.0,5.02,0.00,28.7,27.8,00.0,37.7,30.5,20.4,0000.0,0006.04,0013.51,0004.67
2022-05-02 05:52:00,,0822.9,5.00,0.00,28.7,27.8,00.0,37.7,30.5,20.5,0000.0,0006.03,0013.54,0004.66
2022-05-02 05:53:00,,0822.9,5.00,0.00,28.7,27.8,00.0,37.7,30.5,20.5,0000.0,0006.04,0013.57,0004.65
2022-05-02 05:54:00,,0822.8,4.99,0.00,28.7,27.8,00.0,37.7,30.5,20.4,0000.0,0006.03,0013.82,0004.67
2022-05-02 05:55:00,,0822.7,5.02,0.00,28.7,27.8,00.0,37.7,30.5,20.4,0000.0,0006.07,0013.79,0004.70
2022-05-02 05:56:00,,0822.7,4.99,0.00,28.7,27.8,00.0,37.7,30.5,20.4,0000.0,0006.10,0014.06,0004.73
2022-05-02 05:57:00,,0822.7,5.01,0.00,28.7,27.8,00.0,37.7,30.5,20.4,0000.0,0006.19,0013.84,0004.77
2022-05-02 05:58:00,,0822.6,4.99,0.00,28.7,27.8,00.0,37.7,30.5,20.4,0000.0,0006.23,0013.77,0004.78
2022-05-02 05:59:00,,0822.6,5.01,0.00,28.7,27.8,00.0,37.7,30.5,20.4,0000.0,0006.22,0013.73,0004.80
